Weather Roundup
Issued by NWS

Home | Current Version | Previous Version | Text Only | Print | Product List | Glossary On
Versions: 1 2 3 4 5 6 7 8 9 10 11 12 13 14 15 16 17 18 19 20 21 22 23 24 25 26 27 28 29 30 31 32 33 34 35 36 37 38 39 40 41 42 43 44 45 46 47 48 49 50
138
NZUS93 KARX 231659
HRRWXR

CURRENT HOURLY OBSERVATIONS ACROSS
MUCH OF THE UPPER MISSISSIPPI VALLEY
NATIONAL WEATHER SERVICE LA CROSSE WI
1200 PM CDT SAT JUL 23 2016


...SOUTHEAST MINNESOTA...


CITY           SKY/WX    TMP DP  RH WIND       PRES   REMARKS
ROCHESTER      RAIN      71  69  93 E15       29.96F FOG
ROCHESTER/MAYO CLOUDY    70  70 100 E12G18    29.96F
WINONA         RAIN      72  70  94 NW3       29.97F
AUSTIN         TSTM      73  70  88 E18G30    29.94R VSB 1
ALBERT LEA     RAIN      75  73  94 S5        29.94R
DODGE CENTER   LGT RAIN N/A N/A N/A SE13G21   29.95S
PRESTON        RAIN      69  67  93 NE9       30.00F
OWATONNA       RAIN      73  70  88 SE12      29.93R
FARIBAULT      LGT RAIN  72  72 100 E10       29.92R
$$

...ELSEWHERE IN MINNESOTA...


CITY           SKY/WX    TMP DP  RH WIND       PRES   REMARKS
MINNEAPOLIS    RAIN      73  70  90 SE13      29.90F FOG
INTNL FALLS    MOSUNNY   78  62  57 SE10      29.87F
DULUTH         CLOUDY    76  63  64 E13       29.95R
RED WING       RAIN      72  70  94 E5        29.93F
REDWOOD FALLS  CLOUDY    72  70  93 E12       29.79F
MANKATO        CLOUDY    73  70  88 SE18      29.85R
WORTHINGTON    CLOUDY    80  75  84 S15       29.81F
FAIRMONT       CLOUDY    73  55  53 SE13G18   29.81F
$$

...SOUTHWEST WISCONSIN...


CITY           SKY/WX    TMP DP  RH WIND       PRES   REMARKS
LA CROSSE      LGT RAIN  73  72  94 SW5       29.98R FOG
PRAIRIE DU CHI HVY RAIN  70  68  96 N14       30.01R VSB 1
BOSCOBEL       TSTM      72  70  93 S8        30.04R FOG
LONE ROCK      RAIN      75  73  94 CALM      30.00S FOG
PLATTEVILLE    CLOUDY    78  78 100 CALM      30.00R
FORT MC COY    LGT RAIN  76  71  84 E5        29.99S
CAMP DOUGLAS   TSTM      77  75  94 S1        30.00R
MAUSTON-NEW LI CLOUDY    79  75  89 S7        29.99S
VIROQUA        CLOUDY    70  70 100 SE8       30.01S
WIS DELLS      NOT AVBL
$$

...ELSEWHERE IN WISCONSIN...


CITY           SKY/WX    TMP DP  RH WIND       PRES   REMARKS
MILWAUKEE      CLOUDY    85  75  72 SE7       29.99R HX  93
MADISON        CLOUDY    83  76  79 S6        29.98F HX  91
GREEN BAY      CLOUDY    86  70  58 VRB3      29.98S HX  90
EAU CLAIRE     NOT AVBL
BLACK RVR FLS  LGT RAIN  75  68  78 SW5       29.98F
MEDFORD        CLOUDY    80  70  70 S9        30.03R
WAUSAU         CLOUDY    85  66  53 S7        30.00R
WIS RAPIDS     CLOUDY    83  67  58 S5        30.01S
MARSHFIELD     CLOUDY    82  69  64 S6        30.01S
RICE LAKE      CLOUDY    78  67  69 SE10      29.98S
$$

...NORTHEAST IOWA...


CITY           SKY/WX    TMP DP  RH WIND       PRES   REMARKS
WATERLOO       CLOUDY    82  77  84 E13       29.90F HX  90
DUBUQUE        CLOUDY    79  77  94 CALM      30.00R
DECORAH        LGT RAIN  72  72 100 SE10G16   29.96F
MASON CITY     LGT RAIN  77  75  93 CALM      29.95R FOG
CHARLES CITY   CLOUDY    75  75 100 SE14      29.92R
OELWEIN        CLOUDY    77  77 100 E8        29.96F FOG
$$

...ELSEWHERE IN IOWA...


CITY           SKY/WX    TMP DP  RH WIND       PRES   REMARKS
DES MOINES     PTSUNNY   88  77  69 S12       29.86S HX 100
IOWA CITY      CLOUDY    87  81  82 SE10      29.95F HX 104
FORT DODGE     CLOUDY    81  79  94 E9        29.89F
MARSHALLTOWN   CLOUDY    87  79  76 SE14      29.88F HX 101
CEDAR RAPIDS   CLOUDY    86  81  85 S10       29.92F HX 102
$$

...NORTHERN ILLINOIS...


CITY           SKY/WX    TMP DP  RH WIND       PRES   REMARKS
CHICAGO-OHARE  CLOUDY    88  72  58 W7        29.98F HX  94
CHICAGO-MIDWAY CLOUDY    90  73  57 S3        29.98F HX  98
MOLINE         CLOUDY    88  78  72 SE8       29.96S HX 101
ROCKFORD       CLOUDY    87  77  72 S8        29.99F HX  99
PEORIA         MOSUNNY   87  77  72 CALM      29.99S HX  99
$$

NOTE: "FAIR" INDICATES FEW OR NO CLOUDS BELOW 12,000 FEET WITH NO
SIGNIFICANT WEATHER AND/OR OBSTRUCTIONS TO VISIBILITY. WIND
SPEEDS ARE IN MILES-PER-HOUR.




USA.gov is the U.S. government's official web portal to all federal, state and local government web resources and services.